Pascagoula, MS

8:45 AM CST on November 19, 2017 (GMT -0600)
Lott International

Weather History for KPQL - May, 2014

Change the Weather History Date:

Sunday, May 18, 2014

  Actual Average Record
Temperature  
Mean Temperature 68 °F -  
Max Temperature 82 °F 83 °F 91 °F (1988)
Min Temperature 55 °F 65 °F 43 °F (2011)
Cooling Degree Days 3    
Growing Degree Days 18 (Base 50)    
Moisture  
Dew Point 59 °F    
Average Humidity 82    
Maximum Humidity 100    
Minimum Humidity 39    
Precipitation  
Precipitation 0.00 in - - ()
Sea Level Pressure  
Sea Level Pressure 30.16 in    
Wind  
Wind Speed 2 mph (SW)    
Max Wind Speed 9 mph    
Max Gust Speed -    
Visibility 7 miles    
Events Fog    
Averages and records for this station are not official NWS values.
T = Trace of Precipitation, MM = Missing Value Source: NWS Daily Summary

Daily Weather History Graph

Daily Weather History Graph

Search for Another Location

Airport or City:

Trip Planner

Search our weather history database for the weather conditions in past years. The results will help you decide how hot, cold, wet, or windy it might be!

Date:

Astronomy

May. 18, 2014 Rise Set
Actual Time 5:58 AM CDT 7:43 PM CDT
Civil Twilight 5:31 AM CDT 8:09 PM CDT
Nautical Twilight 4:59 AM CDT 8:41 PM CDT
Astronomical Twilight 4:26 AM CDT 9:15 PM CDT
Moon 11:36 PM CDT (5/18) 9:43 AM CDT (5/18)
Length of Visible Light 14h 38m
Length of Day
13h 45m
Waning Gibbous, 81% of the Moon is Illuminated
May 18
Waning Gibbous
May 21
Last Quarter
May 28
New
Jun 5
First Quarter
Jun 12
Full

Hourly Weather History & Observations

Time (CDT) Temp. Heat Index Dew Point Humidity Pressure Visibility Wind Dir Wind Speed Gust Speed Precip Events Conditions
12:53 AM 59.0 °F - 57.9 °F 96% 30.16 in 6.0 mi Calm Calm - N/A   Clear
1:53 AM 57.9 °F - 57.0 °F 97% 30.15 in 9.0 mi Calm Calm - N/A   Clear
2:53 AM 57.0 °F - 55.9 °F 96% 30.14 in 10.0 mi Calm Calm - N/A   Clear
3:53 AM 55.9 °F - 55.9 °F 100% 30.15 in 5.0 mi Calm Calm - N/A   Clear
4:14 AM 55.9 °F - 55.0 °F 97% 30.15 in 2.5 mi North 3.5 mph - N/A   Clear
4:22 AM 55.9 °F - 55.0 °F 97% 30.15 in 6.0 mi Calm Calm - N/A   Clear
4:53 AM 55.9 °F - 55.9 °F 100% 30.16 in 6.0 mi Calm Calm - N/A   Clear
5:12 AM 55.0 °F - 55.0 °F 100% 30.16 in 1.8 mi Calm Calm - N/A   Clear
5:35 AM 55.0 °F - 55.0 °F 100% 30.15 in 2.5 mi Calm Calm - N/A   Clear
5:53 AM 55.0 °F - 54.0 °F 96% 30.17 in 0.5 mi Calm Calm - N/A Fog Fog
6:02 AM 55.0 °F - 55.0 °F 100% 30.16 in 2.5 mi Calm Calm - N/A   Clear
6:18 AM 55.0 °F - 55.0 °F 100% 30.16 in 1.2 mi Calm Calm - N/A   Clear
6:29 AM 55.9 °F - 55.9 °F 100% 30.16 in 3.0 mi Calm Calm - N/A   Clear
6:53 AM 57.9 °F - 57.9 °F 100% 30.18 in 6.0 mi Calm Calm - N/A   Clear
7:53 AM 66.0 °F - 62.1 °F 87% 30.19 in 10.0 mi North 3.5 mph - N/A   Clear
8:53 AM 73.0 °F - 64.0 °F 73% 30.20 in 10.0 mi North 5.8 mph - N/A   Clear
9:53 AM 75.9 °F - 64.0 °F 67% 30.20 in 10.0 mi Variable 3.5 mph - N/A   Scattered Clouds
10:05 AM 77.0 °F - 64.0 °F 64% 30.19 in 10.0 mi Variable 4.6 mph - N/A   Mostly Cloudy
10:19 AM 77.0 °F - 64.0 °F 64% 30.19 in 10.0 mi Variable 5.8 mph - N/A   Scattered Clouds
10:53 AM 77.0 °F - 62.1 °F 60% 30.20 in 10.0 mi North 3.5 mph - N/A   Partly Cloudy
11:53 AM 80.1 °F 80.9 °F 60.1 °F 50% 30.18 in 10.0 mi Variable 3.5 mph - N/A   Clear
12:53 PM 81.0 °F 81.7 °F 61.0 °F 50% 30.17 in 10.0 mi Variable 3.5 mph - N/A   Clear
1:53 PM 81.0 °F 81.7 °F 61.0 °F 50% 30.17 in 10.0 mi SSW 6.9 mph - N/A   Clear
2:53 PM 81.0 °F 80.5 °F 54.0 °F 39% 30.15 in 10.0 mi South 9.2 mph - N/A   Clear
3:53 PM 79.0 °F - 55.9 °F 45% 30.14 in 10.0 mi South 8.1 mph - N/A   Clear
4:53 PM 78.1 °F - 60.1 °F 54% 30.14 in 10.0 mi South 8.1 mph - N/A   Clear
5:53 PM 77.0 °F - 62.1 °F 60% 30.14 in 10.0 mi Variable 5.8 mph - N/A   Clear
6:53 PM 73.9 °F - 61.0 °F 64% 30.14 in 10.0 mi SSW 5.8 mph - N/A   Clear
7:53 PM 71.1 °F - 62.1 °F 73% 30.15 in 10.0 mi Calm Calm - N/A   Clear
8:53 PM 64.9 °F - 63.0 °F 93% 30.15 in 9.0 mi Calm Calm - N/A   Clear
9:53 PM 63.0 °F - 61.0 °F 93% 30.16 in 9.0 mi Calm Calm - N/A   Clear
10:53 PM 62.1 °F - 60.1 °F 93% 30.17 in 5.0 mi Calm Calm - N/A   Clear
11:20 PM 61.0 °F - 60.1 °F 97% 30.16 in 1.8 mi Calm Calm - N/A   Clear
11:30 PM 61.0 °F - 60.1 °F 97% 30.16 in 3.0 mi Calm Calm - N/A   Clear
11:43 PM 60.1 °F - 60.1 °F 100% 30.16 in 1.8 mi Calm Calm - N/A   Clear
11:53 PM 60.1 °F - 60.1 °F 100% 30.17 in 2.5 mi Calm Calm - N/A   Clear